{"data":{"norad_id":66606,"epoch":"2026-05-24T21:39:03.693312Z","epoch_age_seconds":87504,"freshness":"FRESH","line1":"1 66606U 25270U   26144.90212608  .00024807  00000+0  90749-3 0  9997","line2":"2 66606  43.0012 345.5902 0001652 271.5465  88.5197 15.27596910 29361","mean_motion":15.2759691,"eccentricity":0.0001652,"inclination_deg":43.0012,"raan_deg":345.5902,"arg_perigee_deg":271.5465,"mean_anomaly_deg":88.5197,"bstar":0.00090749,"rev_number":2936,"period_min":94.265705211462,"perigee_km":481.8650023051,"apogee_km":484.13192146171,"semimajor_km":6861.1354618834,"source":"CELESTRAK","updated_at":"2026-05-25T13:38:21.291141Z"}}